Terminal Aerodrome Forecast
Issued by NWS

Current Version | Previous Version | Graphics & Text | Print | Product List | Glossary On
Versions: 1 2 3 4 5 6 7 8 9 10 11 12 13 14 15 16 17 18 19 20 21 22 23 24 25 26 27 28 29 30 31 32 33 34 35 36 37 38 39 40 41 42
000
FTUS41 KRNK 301122
TAFLWB
TAF
KLWB 301122Z 3012/3112 00000KT 3SM BR VCSH SCT001 BKN040
      TEMPO 3012/3013 1/2SM FG BKN001
     FM301400 21003KT P6SM SCT025 BKN060
     FM301700 21005KT P6SM VCTS BKN050CB
     FM310000 VRB03KT P6SM SCT050 BKN100
     FM310800 00000KT 4SM BR SCT120
     FM311000 00000KT 1SM BR SCT001 BKN050=

USA.gov is the U.S. government's official web portal to all federal, state and local government web resources and services.